Home > Weather > Charleston > Past weeks

Flag for U.S.A. Weather for the Past 2 Weeks in Charleston, West Virginia, U.S.A.

Now
26 °F

Light snow. Mostly cloudy.


Feels Like: 16 °F
Forecast: 28 / 35 °F
Wind: 10 mph from Northwest

Location: Yeager Airport

Current Time: Feb 9, 2016 at 7:40:30 AM

Latest Report: Feb 9, 2016 at 6:54 AM


Visibility: 6 mi

Pressure: 29.71 "Hg

Humidity: 77%

Dew point: 20 °F

Location of CharlestonLocation

Historic Weather in Charleston — Graph

°F

Charleston Temperature Yesterday

Maximum temperature yesterday: 46 °F (at 1:54 PM)
Minimum temperature yesterday: 31 °F (at 2:54 AM)
Average temperature yesterday: 36 °F

High & Low Weather Summary for the Past Weeks

 TemperatureHumidityPressure
High67 °F (Feb 3, 3:54 PM)97% (Jan 26, 8:54 PM)30.48 "Hg (Jan 26, 8:54 PM)
Low15 °F (Jan 25, 7:54 AM)22% (Jan 25, 2:54 PM)29.59 "Hg (Feb 8, 2:54 PM)
Average40 °F64%30.02 "Hg
* Reported Jan 25 6:54 AM — Feb 9 6:03 AM, Charleston, Weather by CustomWeather, © 2016

Note: Actual official high and low records may vary slightly from our data, if they occured in-between our weather recording intervals... More about our weather records

Advertising

Charleston Weather History for the Previous 24 Hours

 ConditionsComfort  
Time TempWeatherWind HumidityBarometerVisibility
6:03 AM
Tue, Feb 9
26 °FLight snow. Mostly cloudy.8 mph81%29.67 "Hg5 mi
5:01 AM27 °FLight snow. Ice fog.10 mph85%29.65 "Hg2 mi
3:54 AM29 °FLight snow. Ice fog.10 mph85%29.65 "Hg1 mi
2:54 AM31 °FLight snow. Ice fog.10 mph89%29.64 "Hg1 mi
1:54 AM32 °FLight snow. Ice fog.8 mph88%29.64 "Hg1 mi
12:54 AM34 °FLight snow. Mostly cloudy.10 mph79%29.65 "Hg8 mi
11:54 PM
Mon, Feb 8
34 °FMostly cloudy.10 mph82%29.65 "Hg10 mi
10:54 PM34 °FOvercast.9 mph85%29.66 "Hg10 mi
9:54 PM35 °FMostly cloudy.8 mph82%29.67 "Hg10 mi
8:54 PM34 °FMostly cloudy.7 mph85%29.68 "Hg10 mi
7:54 PM34 °FMostly cloudy.8 mph88%29.69 "Hg10 mi
6:54 PM34 °FMostly cloudy.10 mph88%29.69 "Hg7 mi
5:54 PM33 °FLight snow. Fog.8 mph92%29.68 "Hg1 mi
4:54 PM34 °FSnow. Fog.23 mph85%29.66 "Hg0 mi
3:54 PM44 °FBroken clouds.8 mph49%29.60 "Hg10 mi
2:54 PM46 °FBroken clouds.5 mph48%29.59 "Hg10 mi
1:54 PM46 °FPartly sunny.13 mph56%29.61 "Hg10 mi
12:54 PM43 °FPartly sunny.14 mph62%29.64 "Hg10 mi
11:54 AM42 °FOvercast.13 mph62%29.66 "Hg10 mi
10:54 AM41 °FMostly cloudy.5 mph60%29.67 "Hg10 mi
9:54 AM40 °FMore clouds than sun.7 mph58%29.67 "Hg10 mi
8:54 AM39 °FMore clouds than sun.7 mph57%29.66 "Hg10 mi
7:54 AM33 °FMore clouds than sun.No wind75%29.68 "Hg10 mi
Weather by CustomWeather, © 2016

See weather overviewHow to use our weather pages